Wind_Speed
80 79 83 91 89 87 81 79 71 75 71 77 77 72 67 69 67 63 63 59 60 58 54 53 49 54 55 49 43 39 35 40 46 46 42 37 38 26 23 22 27 26 14 21 18
76 80 82 87 91 93 88 84 77 71 79 76 76 74 68 71 69 70 65 66 62 63 57 57 56 56 56 56 49 42 37 39 38 44 39 41 38 30 27 25 27 31 21 21 20
73 75 77 83 87 96 98 88 85 80 74 74 76 74 73 70 73 76 66 67 64 64 64 58 57 60 60 59 56 48 44 45 48 45 42 44 41 35 34 32 28 34 32 26 18
72 71 73 76 81 87 94 91 88 82 74 73 74 80 70 75 74 71 69 73 70 67 67 62 59 62 65 64 62 57 54 51 51 52 46 42 54 46 37 43 33 35 35 28 21
66 70 70 73 74 79 92 90 91 87 88 90 76 68 66 72 81 75 71 64 67 70 71 72 67 65 66 69 67 63 60 58 56 57 58 50 52 59 48 46 41 35 34 35 27
63 65 67 69 70 73 79 93 87 87 90 91 82 79 76 78 75 76 79 71 70 70 71 68 72 71 69 73 72 67 67 65 61 63 63 63 57 56 52 58 50 46 39 38 33
60 63 65 67 69 72 72 78 89 91 90 96 96 80 79 81 77 76 73 76 74 71 77 78 76 74 75 78 73 74 70 69 71 69 68 68 62 52 57 61 55 49 48 44 41
57 60 61 62 67 69 71 74 81 86 90 86 98 96 88 92 84 77 77 78 79 76 77 76 77 81 79 79 76 79 79 76 77 78 78 77 60 67 66 71 61 53 52 50 50
56 56 60 59 61 64 70 74 75 78 84 89 89 88 98 92 91 92 89 87 85 83 81 82 80 82 83 87 84 81 78 81 83 84 84 84 69 74 76 74 68 61 54 54 53
50 56 56 59 59 59 62 68 74 75 80 85 90 89 89 100 94 98 98 95 95 95 92 95 93 90 89 90 93 93 89 84 87 91 93 90 78 79 84 83 81 72 63 58 59
37 46 54 58 59 60 60 61 64 69 75 79 81 83 84 93 93 96 99 98 100 107 102 101 100 98 97 96 96 98 97 97 100 97 97 95 91 87 87 87 84 83 78 69 61
29 34 40 47 54 57 59 61 62 64 67 70 74 78 81 83 89 96 99 102 103 106 109 106 105 105 105 107 104 102 105 106 103 104 102 106 95 94 93 90 89 89 89 82 75
22 29 35 39 41 45 48 53 57 60 63 66 68 70 74 78 84 91 96 99 101 103 109 115 114 113 112 115 114 115 114 114 113 111 111 108 103 103 99 99 101 98 96 98 92
23 25 27 29 33 37 42 45 48 51 53 56 59 63 66 69 72 76 81 88 93 101 107 112 117 119 117 118 123 125 126 123 123 117 119 117 108 105 105 105 104 102 104 96 97
27 28 29 29 30 30 31 32 34 37 40 42 45 47 50 55 60 61 66 71 75 81 86 90 92 95 101 107 115 122 128 128 129 129 129 122 121 113 116 115 116 111 108 106 103
27 31 33 34 34 33 34 34 35 36 36 36 38 39 40 42 42 45 49 52 57 61 65 68 71 74 78 86 98 101 106 112 112 116 112 119 129 123 126 127 124 126 121 117 116
22 24 26 28 29 31 30 29 31 34 36 37 38 39 39 41 43 47 49 52 55 58 62 60 60 63 66 74 78 81 84 89 96 99 101 111 106 106 117 125 128 133 129 127 126
26 26 25 26 26 27 29 28 29 29 28 29 30 30 31 33 36 40 45 49 52 54 60 60 59 63 63 68 72 78 79 77 76 81 86 96 96 100 106 117 126 133 137 135 132
30 29 30 29 29 28 29 30 29 27 26 26 26 26 27 30 32 35 39 45 47 51 53 56 56 57 60 61 65 71 71 72 70 69 72 82 86 93 97 106 114 125 137 139 138
38 34 33 32 32 32 32 30 27 26 24 22 21 22 23 25 26 29 31 33 36 39 42 42 47 50 53 53 51 57 62 63 63 62 64 71 74 81 90 100 105 109 118 130 141
39 42 38 34 33 34 34 29 26 25 24 25 26 26 27 28 29 31 32 34 32 34 38 36 40 42 47 45 46 47 49 48 50 52 55 60 66 68 80 93 99 106 109 118 126
40 40 45 42 38 35 36 33 31 29 29 30 31 31 32 33 32 30 35 37 37 37 38 38 39 41 43 42 41 42 42 40 39 42 45 51 56 56 68 79 92 105 108 111 117
47 46 44 43 46 41 41 40 38 36 36 36 37 38 37 37 35 33 34 36 36 37 39 38 39 42 42 41 40 42 36 38 33 34 37 43 46 43 57 69 85 96 104 104 113
51 48 48 48 43 44 47 47 46 43 43 42 41 40 40 38 36 35 35 35 33 37 37 39 38 38 39 40 40 40 36 34 35 32 31 31 38 36 45 58 76 89 94 99 113
58 53 53 49 48 45 46 53 50 48 45 43 41 40 40 39 39 37 35 37 37 37 37 39 39 37 37 40 38 43 42 40 33 28 29 28 29 31 35 48 63 78 88 95 109
60 55 54 56 51 49 47 49 50 48 45 43 44 42 42 43 40 36 37 32 35 39 37 36 37 40 39 38 35 40 42 44 42 36 29 25 26 28 33 38 50 63 78 90 99
64 60 58 55 56 53 52 48 48 50 49 46 46 46 45 44 40 37 37 34 37 42 39 36 36 38 39 41 37 37 42 44 45 43 37 31 26 25 28 34 40 51 66 80 94
Wind_Direction
218 220 220 220 219 217 220 222 225 230 230 228 228 224 229 224 225 225 226 231 228 223 229 228 232 233 234 232 226 217 237 257 263 257 247 237 249 260 248 284 271 268 248 286 306
218 219 220 222 222 217 220 224 226 225 232 231 228 228 230 229 229 228 232 235 236 235 231 231 232 233 235 234 233 225 224 235 246 267 242 241 247 249 264 261 266 262 253 281 293
217 219 221 223 222 222 224 223 228 224 234 233 235 231 232 234 235 233 233 234 236 235 233 234 238 237 234 235 233 229 228 233 243 250 257 233 235 240 254 254 271 248 255 281 263
218 220 223 224 225 225 224 226 229 222 224 229 236 240 237 234 234 234 234 236 235 237 237 237 237 238 240 237 235 233 232 232 242 246 249 248 229 228 237 246 251 253 249 263 250
220 220 224 225 226 226 224 228 228 223 225 227 231 228 236 236 234 234 236 236 241 240 240 237 237 236 240 239 237 233 234 235 241 244 246 246 243 230 226 234 247 249 236 260 258
220 223 224 227 228 229 229 227 229 231 230 229 233 234 236 233 243 240 236 237 235 238 242 247 242 237 239 240 238 237 233 234 240 244 244 243 248 250 236 233 226 233 240 247 261
220 223 225 228 230 230 231 231 232 231 230 226 231 232 230 235 238 233 234 239 238 243 243 243 247 241 244 241 240 241 241 240 239 244 243 246 244 248 247 245 237 237 233 240 248
222 224 226 229 231 232 234 233 233 234 235 235 236 239 237 235 231 234 236 237 239 242 246 245 246 246 243 245 245 243 238 242 245 244 243 244 245 247 246 248 243 236 242 240 246
224 226 228 230 233 236 236 236 236 236 238 239 238 237 237 237 241 238 242 239 243 240 240 245 249 248 249 245 244 247 245 242 247 250 249 245 244 254 253 249 248 244 237 248 249
224 228 229 232 234 238 239 240 239 239 239 240 242 242 240 241 242 244 246 245 244 245 245 246 246 246 249 248 248 250 244 246 246 251 249 247 242 248 256 256 252 249 245 241 251
224 227 232 234 237 239 241 242 244 244 245 245 245 245 247 243 244 245 246 249 249 246 249 248 248 249 249 245 249 251 251 250 247 246 247 250 239 247 248 255 254 254 251 246 247
225 227 230 233 237 239 241 242 244 244 246 247 248 249 250 249 249 249 249 251 250 249 251 253 255 253 251 249 247 247 248 249 248 246 245 245 245 244 247 248 252 256 257 252 246
224 230 233 234 235 237 240 242 244 246 247 248 249 250 250 251 252 252 252 253 254 256 255 255 257 259 256 252 252 252 251 252 252 249 248 247 242 245 246 246 249 251 255 258 252
228 225 227 231 235 237 240 241 243 244 246 248 250 251 252 253 254 255 255 256 256 257 257 257 258 259 259 258 254 254 255 257 253 252 251 251 245 242 246 249 249 250 252 252 254
240 239 235 233 232 233 236 238 241 244 246 246 248 251 253 253 254 254 256 257 258 257 257 257 258 259 260 260 259 259 259 259 258 254 252 252 250 244 248 247 250 248 246 248 248
239 241 242 242 241 241 243 246 247 248 249 250 250 251 253 256 255 257 259 259 260 260 258 258 258 259 261 262 261 262 261 260 258 257 256 253 249 247 249 248 247 247 245 243 244
240 241 243 242 240 242 244 247 249 249 250 251 253 255 257 260 262 262 263 265 266 270 269 266 267 267 268 269 268 265 263 262 262 261 259 257 253 248 245 243 242 243 244 243 241
241 242 239 237 240 241 241 237 238 242 244 246 250 253 254 257 260 265 267 267 269 269 272 274 272 273 272 272 273 275 272 265 262 260 257 255 251 248 244 242 240 240 241 242 241
242 240 240 238 237 236 235 238 241 242 245 250 256 261 264 268 272 276 276 275 274 274 274 275 274 276 278 280 282 281 279 278 274 267 258 254 247 243 243 241 240 238 239 241 243
241 242 241 239 238 236 237 242 244 244 246 246 250 260 271 279 283 286 288 288 283 278 277 283 282 281 281 284 286 286 284 281 278 272 263 255 248 242 239 239 239 238 238 240 242
244 241 241 243 239 236 237 233 239 244 246 253 261 267 277 281 286 293 295 297 299 295 286 289 289 286 293 297 304 298 290 286 280 273 266 260 251 242 237 236 237 237 236 236 239
249 244 244 241 240 239 231 237 245 249 254 257 263 270 279 283 285 289 294 298 302 307 302 296 295 292 305 309 313 315 313 304 292 283 273 264 256 245 238 235 232 235 234 235 236
249 251 244 243 241 240 236 237 242 248 254 260 266 271 276 279 280 281 289 298 307 309 309 306 304 300 301 311 315 319 329 320 305 289 281 276 266 252 240 234 232 232 234 233 236
243 249 244 242 241 241 238 241 244 247 251 258 263 269 267 275 278 283 286 292 301 307 308 309 307 303 306 312 318 322 330 337 329 315 298 287 278 257 241 235 234 232 232 230 234
241 241 243 243 242 244 244 241 244 249 252 254 261 268 269 272 276 282 287 294 301 306 307 306 307 304 308 316 325 326 332 337 335 332 318 301 289 273 250 241 238 234 232 231 232
237 240 241 242 243 243 245 244 244 252 249 254 262 265 265 272 276 282 287 295 292 299 307 305 310 312 308 312 324 328 333 337 341 341 327 307 294 284 270 247 241 241 235 232 234
231 238 240 241 239 242 242 245 247 251 250 254 261 265 266 273 279 284 287 299 297 299 307 308 308 308 308 308 316 323 329 335 339 343 340 322 302 285 272 267 251 241 242 237 234
Height
10673 10683 10693 10703 10714 10725 10733 10741 10748 10755 10761 10766 10772 10776 10784 10791 10796 10803 10805 10809 10814 10818 10822 10827 10833 10835 10839 10846 10848 10850 10853 10853 10849 10853 10864 10871 10877 10880 10882 10881 10877 10877 10882 10884 10885
10662 10672 10682 10692 10702 10713 10723 10730 10739 10745 10750 10756 10762 10769 10776 10781 10786 10790 10795 10801 10807 10812 10816 10822 10825 10829 10833 10840 10844 10848 10849 10845 10842 10839 10855 10862 10869 10875 10877 10878 10876 10871 10876 10880 10881
10653 10662 10671 10680 10690 10701 10710 10719 10728 10737 10743 10748 10754 10761 10766 10772 10777 10782 10785 10790 10797 10803 10807 10812 10816 10820 10825 10831 10837 10844 10842 10842 10838 10835 10840 10852 10856 10868 10871 10874 10874 10867 10871 10874 10876
10645 10654 10661 10669 10678 10688 10699 10707 10717 10726 10733 10738 10744 10749 10755 10761 10769 10769 10777 10784 10788 10793 10798 10802 10806 10811 10814 10821 10829 10833 10831 10836 10833 10833 10831 10838 10847 10852 10861 10864 10868 10868 10864 10865 10868
10636 10644 10653 10661 10669 10677 10687 10695 10704 10713 10721 10726 10734 10738 10745 10750 10756 10761 10768 10772 10777 10781 10784 10789 10794 10798 10803 10808 10814 10826 10825 10828 10827 10824 10824 10826 10829 10840 10849 10852 10857 10861 10860 10859 10862
10627 10636 10644 10652 10659 10668 10675 10683 10693 10700 10708 10715 10722 10727 10735 10740 10746 10749 10758 10763 10767 10771 10775 10780 10785 10789 10793 10794 10802 10816 10817 10817 10818 10814 10815 10818 10821 10831 10836 10840 10845 10851 10854 10851 10853
10620 10628 10636 10644 10650 10658 10665 10672 10680 10687 10695 10703 10709 10715 10722 10728 10733 10740 10745 10750 10754 10758 10765 10770 10773 10777 10781 10782 10792 10798 10808 10810 10804 10804 10807 10805 10819 10827 10816 10825 10839 10843 10845 10848 10847
10613 10621 10628 10634 10641 10647 10653 10660 10667 10674 10681 10688 10696 10703 10710 10713 10720 10727 10732 10737 10741 10745 10751 10755 10758 10764 10769 10772 10778 10784 10793 10796 10791 10791 10793 10796 10825 10809 10806 10806 10824 10835 10836 10840 10845
10606 10613 10620 10626 10632 10637 10643 10649 10655 10661 10667 10674 10681 10689 10695 10699 10706 10713 10717 10723 10728 10731 10735 10739 10743 10748 10755 10762 10764 10770 10777 10783 10780 10778 10780 10786 10813 10801 10800 10804 10812 10824 10832 10834 10836
10598 10605 10611 10617 10622 10628 10633 10638 10643 10648 10654 10659 10666 10674 10680 10684 10690 10697 10701 10706 10711 10715 10717 10722 10727 10731 10737 10743 10749 10753 10761 10764 10765 10761 10761 10771 10797 10795 10786 10790 10799 10809 10820 10827 10830
10591 10597 10602 10609 10613 10618 10623 10627 10632 10638 10643 10647 10652 10658 10663 10669 10673 10678 10683 10688 10691 10696 10699 10702 10709 10713 10718 10725 10730 10734 10737 10743 10741 10748 10749 10752 10774 10775 10779 10777 10785 10789 10801 10813 10819
10585 10589 10594 10599 10603 10608 10612 10616 10620 10625 10630 10634 10638 10644 10649 10654 10659 10662 10664 10668 10672 10674 10679 10685 10687 10692 10698 10702 10705 10705 10709 10711 10722 10724 10729 10729 10754 10762 10766 10770 10769 10773 10774 10789 10800
10579 10583 10587 10590 10594 10598 10602 10606 10610 10614 10618 10622 10627 10630 10634 10637 10641 10643 10646 10649 10651 10652 10658 10662 10665 10668 10674 10674 10676 10678 10683 10692 10700 10706 10704 10710 10740 10742 10747 10748 10749 10757 10760 10756 10772
10576 10577 10580 10582 10586 10589 10593 10596 10600 10603 10606 10611 10614 10617 10620 10622 10625 10629 10629 10629 10632 10633 10637 10639 10643 10647 10647 10646 10651 10651 10650 10658 10671 10678 10675 10689 10715 10724 10725 10729 10733 10740 10739 10742 10738
10569 10571 10574 10576 10578 10582 10584 10587 10590 10593 10596 10600 10603 10604 10607 10608 10610 10617 10613 10614 10612 10614 10616 10622 10622 10622 10619 10618 10617 10619 10625 10627 10632 10642 10651 10667 10669 10705 10693 10703 10706 10709 10715 10714 10710
10560 10563 10565 10568 10571 10574 10576 10579 10581 10584 10587 10590 10592 10594 10597 10597 10600 10601 10600 10600 10595 10595 10597 10601 10605 10605 10602 10594 10592 10599 10596 10591 10598 10599 10617 10619 10624 10667 10666 10669 10673 10669 10667 10681 10683
10552 10554 10556 10559 10561 10564 10567 10569 10571 10574 10577 10580 10582 10584 10588 10588 10589 10588 10588 10587 10584 10581 10577 10587 10589 10588 10586 10575 10572 10571 10568 10569 10568 10572 10583 10571 10600 10625 10618 10622 10621 10628 10638 10645 10653
10544 10546 10548 10551 10554 10556 10558 10561 10563 10566 10569 10571 10572 10574 10578 10578 10578 10577 10576 10574 10573 10571 10563 10567 10571 10568 10568 10562 10554 10543 10540 10542 10546 10541 10546 10539 10562 10565 10574 10577 10587 10597 10599 10610 10624
10535 10538 10541 10544 10547 10549 10551 10554 10556 10558 10560 10562 10563 10565 10567 10569 10569 10566 10564 10563 10561 10557 10553 10549 10555 10553 10546 10544 10534 10522 10518 10515 10516 10515 10515 10508 10523 10530 10538 10541 10552 10565 10576 10589 10597
10526 10529 10533 10536 10538 10540 10543 10545 10547 10549 10551 10554 10555 10556 10558 10560 10560 10557 10554 10551 10550 10544 10541 10536 10536 10536 10530 10527 10522 10508 10499 10495 10491 10488 10485 10482 10491 10501 10510 10515 10525 10540 10554 10561 10567
10515 10519 10523 10526 10529 10532 10533 10536 10539 10541 10543 10545 10546 10547 10548 10550 10550 10548 10544 10540 10539 10534 10529 10527 10523 10525 10515 10511 10502 10493 10485 10478 10470 10467 10462 10457 10461 10476 10484 10488 10503 10508 10522 10528 10536
10505 10507 10511 10516 10520 10522 10524 10526 10529 10531 10533 10535 10536 10537 10538 10539 10540 10539 10535 10532 10528 10524 10518 10516 10512 10511 10503 10499 10492 10481 10471 10463 10455 10449 10444 10439 10442 10460 10463 10470 10476 10477 10489 10503 10516
10492 10495 10500 10504 10509 10512 10515 10517 10519 10522 10524 10525 10526 10527 10528 10528 10529 10530 10526 10522 10519 10515 10509 10505 10500 10495 10495 10490 10482 10472 10465 10452 10443 10437 10433 10427 10431 10447 10445 10447 10448 10452 10463 10486 10487
10478 10483 10487 10492 10495 10499 10503 10506 10509 10512 10514 10515 10515 10516 10517 10517 10518 10518 10517 10513 10511 10507 10501 10495 10491 10487 10481 10479 10472 10463 10457 10448 10436 10428 10423 10421 10416 10424 10425 10427 10426 10430 10442 10458 10456
10464 10470 10473 10479 10482 10487 10490 10494 10497 10500 10502 10504 10504 10505 10506 10507 10507 10507 10506 10502 10499 10496 10492 10486 10481 10477 10472 10465 10461 10452 10444 10438 10431 10425 10417 10411 10408 10409 10411 10411 10409 10413 10421 10430 10426
10450 10455 10459 10464 10469 10474 10478 10480 10485 10486 10490 10492 10492 10493 10494 10494 10495 10496 10495 10492 10489 10486 10482 10477 10471 10465 10461 10457 10454 10445 10438 10430 10422 10416 10410 10405 10401 10400 10396 10397 10397 10398 10403 10408 10408
10433 10438 10444 10451 10456 10459 10463 10468 10471 10473 10478 10480 10479 10479 10481 10482 10482 10483 10482 10481 10478 10474 10471 10467 10463 10458 10452 10446 10445 10439 10431 10423 10416 10409 10401 10397 10394 10392 10388 10385 10384 10385 10384 10388 10388